| time (UTC) | temp F | wind direction | speed knots | gust knots | rain 1hr in | rain 24hr in | rain mn in | humidity % | barometer mb |
| 20260504050352 | 39 | 199 | 0.0 | 0.0 | 0.00 | 0.00 | 0.00 | 84 | 1013.4 |
| 20260504045849 | 39 | 201 | 0.0 | 0.0 | 0.00 | 0.00 | 0.00 | 83 | 1013.3 |
| 20260504045349 | 39 | 199 | 0.0 | 0.0 | 0.00 | 0.00 | 0.00 | 82 | 1013.4 |
| 20260504044847 | 40 | 198 | 0.0 | 0.0 | 0.00 | 0.00 | 0.00 | 82 | 1013.5 |
| 20260504044344 | 40 | 203 | 0.0 | 0.0 | 0.00 | 0.00 | 0.00 | 81 | 1013.3 |
| 20260504043841 | 41 | 199 | 0.0 | 0.0 | 0.00 | 0.00 | 0.00 | 79 | 1013.3 |
| 20260504043338 | 42 | 199 | 0.0 | 0.0 | 0.00 | 0.00 | 0.00 | 77 | 1013.5 |
| 20260504042835 | 42 | 198 | 0.0 | 0.0 | 0.00 | 0.00 | 0.00 | 74 | 1013.4 |
| 20260504042331 | 42 | 201 | 0.0 | 0.9 | 0.00 | 0.00 | 0.00 | 76 | 1013.3 |
| 20260504041828 | 42 | 196 | 0.0 | 0.0 | 0.00 | 0.00 | 0.00 | 76 | 1013.2 |
| 20260504041324 | 42 | 201 | 0.0 | 0.0 | 0.00 | 0.00 | 0.00 | 77 | 1013.3 |
| 20260504040820 | 41 | 193 | 0.9 | 0.9 | 0.00 | 0.00 | 0.00 | 80 | 1013.2 |
| 20260504040318 | 41 | 202 | 0.0 | 0.0 | 0.00 | 0.00 | 0.00 | 80 | 1013.4 |
| 20260504035814 | 41 | 201 | 0.0 | 0.0 | 0.00 | 0.00 | 0.00 | 79 | 1013.3 |
| 20260504035311 | 41 | 206 | 0.0 | 0.9 | 0.00 | 0.00 | 0.00 | 81 | 1013.1 |
| 20260504034809 | 41 | 200 | 0.0 | 0.0 | 0.00 | 0.00 | 0.00 | 80 | 1013.2 |
| 20260504034306 | 40 | 207 | 0.9 | 0.9 | 0.00 | 0.00 | 0.00 | 82 | 1013.2 |
| 20260504033803 | 40 | 215 | 1.7 | 1.7 | 0.00 | 0.00 | 0.00 | 83 | 1013.3 |
| 20260504033301 | 40 | 197 | 0.0 | 0.0 | 0.00 | 0.00 | 0.00 | 81 | 1013.4 |
| 20260504032757 | 41 | 200 | 0.0 | 0.0 | 0.00 | 0.00 | 0.00 | 82 | 1013.4 |
| 20260504032254 | 41 | 201 | 0.0 | 0.0 | 0.00 | 0.00 | 0.00 | 81 | 1013.4 |
| 20260504031751 | 41 | 202 | 0.0 | 0.0 | 0.00 | 0.00 | 0.00 | 80 | 1013.4 |
| 20260504031249 | 41 | 177 | 0.0 | 0.9 | 0.00 | 0.00 | 0.00 | 80 | 1013.1 |
| 20260504030744 | 41 | 202 | 0.0 | 0.0 | 0.00 | 0.00 | 0.00 | 80 | 1012.9 |
| 20260504030242 | 42 | 200 | 0.0 | 0.0 | 0.00 | 0.00 | 0.00 | 79 | 1012.9 |
| 20260504025738 | 42 | 199 | 0.0 | 0.0 | 0.00 | 0.00 | 0.00 | 77 | 1013.0 |
| 20260504025235 | 42 | 197 | 0.0 | 0.0 | 0.00 | 0.00 | 0.00 | 77 | 1013.1 |
| 20260504024732 | 42 | 207 | 0.9 | 0.9 | 0.00 | 0.00 | 0.00 | 78 | 1013.1 |
| 20260504024228 | 42 | 200 | 0.0 | 0.0 | 0.00 | 0.00 | 0.00 | 77 | 1013.0 |
| 20260504023725 | 42 | 202 | 0.0 | 0.0 | 0.00 | 0.00 | 0.00 | 76 | 1013.0 |
| 20260504023221 | 42 | 199 | 0.0 | 0.0 | 0.00 | 0.00 | 0.00 | 76 | 1013.2 |
| 20260504022718 | 42 | 201 | 0.0 | 0.0 | 0.00 | 0.00 | 0.00 | 76 | 1013.3 |
| 20260504022214 | 43 | 198 | 0.0 | 0.0 | 0.00 | 0.00 | 0.00 | 74 | 1013.1 |
| 20260504021712 | 43 | 202 | 0.0 | 0.0 | 0.00 | 0.00 | 0.00 | 73 | 1013.1 |
| 20260504021208 | 44 | 202 | 0.0 | 0.0 | 0.00 | 0.00 | 0.00 | 73 | 1013.2 |
| 20260504020705 | 44 | 203 | 0.0 | 0.0 | 0.00 | 0.00 | 0.00 | 73 | 1013.2 |
| 20260504020201 | 44 | 201 | 0.0 | 0.0 | 0.00 | 0.00 | 0.00 | 72 | 1013.0 |
| 20260504015658 | 45 | 200 | 0.0 | 0.0 | 0.00 | 0.00 | 0.00 | 71 | 1013.1 |
| 20260504015154 | 45 | 195 | 0.0 | 0.0 | 0.00 | 0.00 | 0.00 | 71 | 1013.1 |
| 20260504014650 | 44 | 201 | 0.0 | 0.0 | 0.00 | 0.00 | 0.00 | 69 | 1013.0 |
| 20260504014147 | 45 | 202 | 0.0 | 0.0 | 0.00 | 0.00 | 0.00 | 70 | 1013.0 |
| 20260504013645 | 45 | 205 | 0.0 | 0.0 | 0.00 | 0.00 | 0.00 | 69 | 1013.1 |
| 20260504013142 | 45 | 203 | 0.0 | 0.0 | 0.00 | 0.00 | 0.00 | 69 | 1013.0 |
| 20260504012639 | 45 | 201 | 0.0 | 0.0 | 0.00 | 0.00 | 0.00 | 70 | 1012.8 |
| 20260504012137 | 46 | 200 | 0.0 | 0.0 | 0.00 | 0.00 | 0.00 | 69 | 1012.8 |
| 20260504011633 | 46 | 201 | 0.0 | 0.0 | 0.00 | 0.00 | 0.00 | 66 | 1012.8 |
| 20260504011130 | 46 | 200 | 0.0 | 0.0 | 0.00 | 0.00 | 0.00 | 65 | 1012.7 |
| 20260504010626 | 47 | 202 | 0.0 | 0.0 | 0.00 | 0.00 | 0.00 | 64 | 1012.8 |
| 20260504010122 | 47 | 200 | 0.0 | 0.0 | 0.00 | 0.00 | 0.00 | 64 | 1012.8 |
| 20260504005619 | 48 | 198 | 0.0 | 0.0 | 0.00 | 0.00 | 0.00 | 63 | 1012.8 |
| 20260504005116 | 48 | 201 | 0.0 | 0.0 | 0.00 | 0.00 | 0.00 | 62 | 1012.8 |
| 20260504004614 | 49 | 201 | 0.0 | 0.0 | 0.00 | 0.00 | 0.00 | 59 | 1012.6 |
| 20260504004111 | 50 | 199 | 0.0 | 0.0 | 0.00 | 0.00 | 0.00 | 55 | 1012.5 |
| 20260504003607 | 51 | 201 | 0.0 | 0.0 | 0.00 | 0.00 | 0.00 | 54 | 1012.7 |
| 20260504003104 | 53 | 202 | 0.0 | 0.0 | 0.00 | 0.00 | 0.00 | 52 | 1012.7 |
| 20260504002600 | 53 | 205 | 0.0 | 0.0 | 0.00 | 0.00 | 0.00 | 47 | 1012.4 |
| 20260504002058 | 53 | 217 | 1.7 | 1.7 | 0.00 | 0.00 | 0.00 | 47 | 1012.3 |
| 20260504001555 | 54 | 202 | 0.0 | 0.0 | 0.00 | 0.00 | 0.00 | 48 | 1012.3 |
| 20260504001051 | 55 | 207 | 0.9 | 0.9 | 0.00 | 0.00 | 0.00 | 43 | 1012.3 |
| 20260504000549 | 55 | 224 | 2.6 | 2.6 | 0.00 | 0.00 | 0.00 | 43 | 1012.2 |
| 20260504000046 | 55 | 202 | 0.0 | 0.0 | 0.00 | 0.00 | 0.00 | 43 | 1012.3 |
| 20260503235544 | 56 | 221 | 0.9 | 1.7 | 0.00 | 0.00 | 0.00 | 44 | 1012.2 |
| 20260503235041 | 57 | 226 | 2.6 | 2.6 | 0.00 | 0.00 | 0.00 | 42 | 1012.1 |
| 20260503234538 | 56 | 218 | 1.7 | 1.7 | 0.00 | 0.00 | 0.00 | 41 | 1012.4 |
| 20260503234037 | 56 | 243 | 3.5 | 5.2 | 0.00 | 0.00 | 0.00 | 41 | 1012.1 |
| 20260503233533 | 56 | 216 | 4.3 | 5.2 | 0.00 | 0.00 | 0.00 | 40 | 1012.3 |
| 20260503233029 | 56 | 210 | 1.7 | 1.7 | 0.00 | 0.00 | 0.00 | 43 | 1012.1 |
| 20260503232526 | 56 | 225 | 2.6 | 4.3 | 0.00 | 0.00 | 0.00 | 41 | 1012.2 |
| 20260503232023 | 57 | 218 | 5.2 | 7.8 | 0.00 | 0.00 | 0.00 | 39 | 1012.2 |
| 20260503231521 | 58 | 228 | 4.3 | 6.1 | 0.00 | 0.00 | 0.00 | 39 | 1012.1 |
| 20260503231018 | 58 | 203 | 7.8 | 9.6 | 0.00 | 0.00 | 0.00 | 38 | 1012.3 |
| 20260503230514 | 57 | 268 | 6.1 | 8.7 | 0.00 | 0.00 | 0.00 | 38 | 1012.0 |
| 20260503230012 | 58 | 201 | 0.0 | 0.0 | 0.00 | 0.00 | 0.00 | 38 | 1012.1 |
| 20260503225508 | 58 | 228 | 4.3 | 6.1 | 0.00 | 0.00 | 0.00 | 36 | 1012.1 |
| 20260503225003 | 59 | 242 | 2.6 | 4.3 | 0.00 | 0.00 | 0.00 | 37 | 1012.0 |
| 20260503224501 | 59 | 191 | 4.3 | 5.2 | 0.00 | 0.00 | 0.00 | 37 | 1012.1 |
| 20260503223959 | 59 | 219 | 4.3 | 5.2 | 0.00 | 0.00 | 0.00 | 37 | 1012.2 |
| 20260503223457 | 59 | 229 | 5.2 | 7.0 | 0.00 | 0.00 | 0.00 | 36 | 1012.0 |
| 20260503222952 | 59 | 247 | 2.6 | 4.3 | 0.00 | 0.00 | 0.00 | 38 | 1012.1 |
| 20260503222451 | 59 | 242 | 4.3 | 5.2 | 0.00 | 0.00 | 0.00 | 38 | 1011.9 |
| 20260503221948 | 59 | 236 | 3.5 | 4.3 | 0.00 | 0.00 | 0.00 | 36 | 1012.2 |
| 20260503221446 | 60 | 218 | 6.1 | 7.0 | 0.00 | 0.00 | 0.00 | 35 | 1012.0 |
| 20260503220943 | 60 | 210 | 10.4 | 13.0 | 0.00 | 0.00 | 0.00 | 34 | 1012.3 |
| 20260503220439 | 60 | 220 | 4.3 | 9.6 | 0.00 | 0.00 | 0.00 | 33 | 1011.9 |
| 20260503215936 | 59 | 198 | 9.6 | 12.2 | 0.00 | 0.00 | 0.00 | 34 | 1012.2 |
| 20260503215433 | 59 | 182 | 7.0 | 9.6 | 0.00 | 0.00 | 0.00 | 35 | 1012.2 |
| 20260503214931 | 59 | 204 | 5.2 | 6.1 | 0.00 | 0.00 | 0.00 | 37 | 1012.0 |
| 20260503214429 | 60 | 224 | 6.1 | 6.1 | 0.00 | 0.00 | 0.00 | 36 | 1012.2 |
| 20260503213925 | 60 | 213 | 7.0 | 8.7 | 0.00 | 0.00 | 0.00 | 35 | 1012.3 |
| 20260503213424 | 61 | 195 | 8.7 | 11.3 | 0.00 | 0.00 | 0.00 | 35 | 1012.1 |
| 20260503212920 | 61 | 218 | 2.6 | 6.1 | 0.00 | 0.00 | 0.00 | 34 | 1011.9 |
| 20260503212417 | 61 | 261 | 4.3 | 6.1 | 0.00 | 0.00 | 0.00 | 37 | 1012.0 |
| 20260503211915 | 61 | 217 | 6.1 | 7.8 | 0.00 | 0.00 | 0.00 | 35 | 1012.1 |
| 20260503211412 | 59 | 231 | 7.0 | 8.7 | 0.00 | 0.00 | 0.00 | 35 | 1012.0 |
| 20260503210907 | 59 | 234 | 7.0 | 7.8 | 0.00 | 0.00 | 0.00 | 36 | 1012.1 |
| 20260503210405 | 60 | 232 | 4.3 | 5.2 | 0.00 | 0.00 | 0.00 | 34 | 1012.2 |
| 20260503205904 | 60 | 190 | 1.7 | 1.7 | 0.00 | 0.00 | 0.00 | 35 | 1012.2 |
| 20260503205401 | 60 | 251 | 7.0 | 7.8 | 0.00 | 0.00 | 0.00 | 33 | 1012.0 |
| 20260503204858 | 60 | 219 | 5.2 | 8.7 | 0.00 | 0.00 | 0.00 | 33 | 1012.2 |
| 20260503204355 | 60 | 202 | 5.2 | 7.8 | 0.00 | 0.00 | 0.00 | 36 | 1011.9 |
| 20260503203852 | 60 | 217 | 4.3 | 7.0 | 0.00 | 0.00 | 0.00 | 32 | 1012.2 |
| 20260503203349 | 60 | 219 | 7.0 | 7.8 | 0.00 | 0.00 | 0.00 | 34 | 1012.1 |
| 20260503202846 | 59 | 203 | 5.2 | 7.8 | 0.00 | 0.00 | 0.00 | 37 | 1012.1 |
| 20260503202345 | 59 | 205 | 8.7 | 11.3 | 0.00 | 0.00 | 0.00 | 36 | 1012.3 |
| 20260503201843 | 61 | 206 | 5.2 | 7.8 | 0.00 | 0.00 | 0.00 | 33 | 1012.2 |
| 20260503201339 | 61 | 249 | 6.1 | 7.0 | 0.00 | 0.00 | 0.00 | 35 | 1012.2 |
| 20260503200837 | 61 | 205 | 5.2 | 7.8 | 0.00 | 0.00 | 0.00 | 36 | 1012.2 |
| 20260503200332 | 60 | 213 | 5.2 | 7.8 | 0.00 | 0.00 | 0.00 | 33 | 1012.1 |
| 20260503195830 | 59 | 225 | 6.1 | 7.8 | 0.00 | 0.00 | 0.00 | 35 | 1012.1 |
| 20260503195326 | 59 | 234 | 5.2 | 7.0 | 0.00 | 0.00 | 0.00 | 36 | 1012.3 |
| 20260503194824 | 59 | 221 | 7.0 | 11.3 | 0.00 | 0.00 | 0.00 | 35 | 1012.3 |
| 20260503194319 | 59 | 173 | 3.5 | 4.3 | 0.00 | 0.00 | 0.00 | 37 | 1012.6 |
| 20260503193816 | 60 | 200 | 11.3 | 12.2 | 0.00 | 0.00 | 0.00 | 35 | 1012.6 |
| 20260503193312 | 60 | 198 | 6.1 | 8.7 | 0.00 | 0.00 | 0.00 | 36 | 1012.7 |
| 20260503192808 | 59 | 213 | 2.6 | 4.3 | 0.00 | 0.00 | 0.00 | 36 | 1012.8 |
| 20260503192305 | 59 | 204 | 7.8 | 9.6 | 0.00 | 0.00 | 0.00 | 36 | 1012.9 |
| 20260503191800 | 58 | 220 | 10.4 | 12.2 | 0.00 | 0.00 | 0.00 | 36 | 1012.7 |
| 20260503191257 | 59 | 285 | 4.3 | 7.0 | 0.00 | 0.00 | 0.00 | 38 | 1013.0 |
| 20260503190754 | 59 | 221 | 7.0 | 8.7 | 0.00 | 0.00 | 0.00 | 39 | 1012.9 |
| 20260503190250 | 59 | 239 | 7.0 | 9.6 | 0.00 | 0.00 | 0.00 | 36 | 1012.9 |
| 20260503185748 | 59 | 214 | 6.1 | 7.8 | 0.00 | 0.00 | 0.00 | 37 | 1013.1 |
| 20260503185243 | 60 | 171 | 5.2 | 6.1 | 0.00 | 0.00 | 0.00 | 36 | 1013.2 |
| 20260503184738 | 59 | 232 | 6.1 | 7.0 | 0.00 | 0.00 | 0.00 | 38 | 1013.1 |
| 20260503184235 | 59 | 220 | 7.0 | 7.8 | 0.00 | 0.00 | 0.00 | 36 | 1013.3 |
| 20260503183731 | 59 | 216 | 3.5 | 5.2 | 0.00 | 0.00 | 0.00 | 36 | 1013.2 |
| 20260503183229 | 59 | 218 | 8.7 | 12.2 | 0.00 | 0.00 | 0.00 | 44 | 1013.5 |
| 20260503182726 | 58 | 217 | 3.5 | 4.3 | 0.00 | 0.00 | 0.00 | 38 | 1013.5 |
| 20260503182225 | 58 | 256 | 6.1 | 7.0 | 0.00 | 0.00 | 0.00 | 38 | 1013.4 |
| 20260503181721 | 58 | 225 | 7.8 | 8.7 | 0.00 | 0.00 | 0.00 | 37 | 1013.4 |
| 20260503181218 | 59 | 185 | 5.2 | 6.1 | 0.00 | 0.00 | 0.00 | 35 | 1013.3 |
| 20260503180715 | 59 | 217 | 7.8 | 8.7 | 0.00 | 0.00 | 0.00 | 37 | 1013.5 |
| 20260503180213 | 59 | 102 | 4.3 | 7.0 | 0.00 | 0.00 | 0.00 | 34 | 1013.7 |
| 20260503175710 | 59 | 174 | 3.5 | 5.2 | 0.00 | 0.00 | 0.00 | 35 | 1013.5 |
| 20260503175208 | 58 | 215 | 0.9 | 1.7 | 0.00 | 0.00 | 0.00 | 35 | 1013.6 |
| 20260503174703 | 59 | 238 | 4.3 | 6.1 | 0.00 | 0.00 | 0.00 | 41 | 1013.5 |
| 20260503174201 | 59 | 213 | 4.3 | 6.1 | 0.00 | 0.00 | 0.00 | 36 | 1013.4 |
| 20260503173656 | 58 | 238 | 12.2 | 14.8 | 0.00 | 0.00 | 0.00 | 36 | 1013.7 |
| 20260503173152 | 58 | 273 | 7.8 | 12.2 | 0.00 | 0.00 | 0.00 | 39 | 1013.1 |
| 20260503172649 | 57 | 245 | 5.2 | 7.0 | 0.00 | 0.00 | 0.00 | 37 | 1013.6 |
| 20260503172147 | 58 | 228 | 7.8 | 11.3 | 0.00 | 0.00 | 0.00 | 36 | 1013.4 |
| 20260503171643 | 57 | 191 | 4.3 | 5.2 | 0.00 | 0.00 | 0.00 | 34 | 1013.7 |
| 20260503171141 | 57 | 188 | 1.7 | 1.7 | 0.00 | 0.00 | 0.00 | 33 | 1013.8 |
| 20260503170637 | 57 | 192 | 7.8 | 8.7 | 0.00 | 0.00 | 0.00 | 37 | 1013.9 |
| 20260503170134 | 56 | 198 | 3.5 | 4.3 | 0.00 | 0.00 | 0.00 | 38 | 1014.0 |
| 20260503150526 | 51 | 157 | 2.6 | 2.6 | 0.00 | 0.00 | 0.00 | 47 | 1015.1 |
| 20260503131419 | 46 | 255 | 4.3 | 5.2 | 0.00 | 0.00 | 0.00 | 58 | 1015.7 |
| 20260503130915 | 45 | 200 | 4.3 | 6.1 | 0.00 | 0.00 | 0.00 | 56 | 1015.7 |
| 20260503130413 | 46 | 222 | 1.7 | 2.6 | 0.00 | 0.00 | 0.00 | 57 | 1015.8 |
| 20260503110817 | 41 | 205 | 2.6 | 4.3 | 0.00 | 0.00 | 0.00 | 64 | 1015.3 |
| 20260503110314 | 41 | 222 | 2.6 | 2.6 | 0.00 | 0.00 | 0.00 | 62 | 1015.3 |
| 20260503100240 | 39 | 208 | 0.9 | 0.9 | 0.00 | 0.00 | 0.00 | 66 | 1014.6 |
| 20260503090200 | 41 | 188 | 0.0 | 0.0 | 0.00 | 0.00 | 0.00 | 65 | 1014.2 |
| 20260503081630 | 41 | 206 | 0.0 | 0.9 | 0.00 | 0.00 | 0.00 | 61 | 1014.2 |
| 20260503081127 | 41 | 194 | 0.9 | 1.7 | 0.00 | 0.00 | 0.00 | 58 | 1014.0 |
| 20260503080622 | 41 | 272 | 1.7 | 4.3 | 0.00 | 0.00 | 0.00 | 58 | 1013.9 |
| 20260503080119 | 41 | 179 | 0.9 | 0.9 | 0.00 | 0.00 | 0.00 | 59 | 1014.2 |
| 20260503072556 | 40 | 203 | 1.7 | 1.7 | 0.00 | 0.00 | 0.00 | 61 | 1013.6 |
| 20260503072054 | 41 | 234 | 0.0 | 0.9 | 0.00 | 0.00 | 0.00 | 63 | 1013.6 |
| 20260503071550 | 41 | 216 | 1.7 | 1.7 | 0.00 | 0.00 | 0.00 | 59 | 1013.8 |
| 20260503071047 | 41 | 184 | 2.6 | 4.3 | 0.00 | 0.00 | 0.00 | 61 | 1013.6 |
| 20260503070543 | 41 | 174 | 2.6 | 5.2 | 0.00 | 0.00 | 0.00 | 66 | 1013.7 |
| 20260503054957 | 43 | 227 | 0.9 | 1.7 | 0.00 | 0.00 | 0.00 | 58 | 1013.4 |
| 20260503054453 | 43 | 217 | 1.7 | 1.7 | 0.00 | 0.00 | 0.00 | 58 | 1013.4 |
| 20260503053950 | 42 | 249 | 2.6 | 4.3 | 0.00 | 0.00 | 0.00 | 60 | 1013.6 |